Location: Brienzwiler
(46.7508°N, 8.1014°E)
Time: 08:12:21
(UTC+00:00)

BREEZE-M DEB (TANK) - Pass Details

Date: 05 July 2020
Orbit: 328 x 12050 km, 49.6° (Epoch: 05 August)

Event Time Altitude Azimuth Distance (km) Brightness Sun altitude
Rises 22:33:34 0° 288° (WNW) 3,679 6.8 -19.3°
Reaches altitude 10° 22:37:00 10° 290° (WNW) 1,972 5.4 -19.5°
Enters shadow 22:40:38 78° 12° (NNE) 393 1.4 -19.6°
